Location: Hobi?a Gr?di?te
(45.4833°N, 22.7833°E)
Time: 05:15:41
(UTC+00:00)

Cosmos 1025 Rocket - Pass Details

Date: 28 January 2023
Orbit: 592 x 616 km, 82.5° (Epoch: 29 March)

Event Time Altitude Azimuth Distance (km) Brightness Sun altitude
Rises 16:36:11 0° 204° (SSW) 2,817 7.0 -11.9°
Reaches altitude 10° 16:38:28 10° 212° (SSW) 1,921 6.3 -12.3°
Maximum altitude 16:42:30 42° 284° (WNW) 853 4.3 -12.9°
Drops below altitude 10° 16:46:35 10° 356° (N) 1,943 5.5 -13.6°
Sets 16:48:54 0° 3° (N) 2,854 6.3 -14.0°
